Satellite: NO-44
Catalog number: 26931
Epoch time:      11202.59999375
Element set:     805
Inclination:      067.0512 deg
RA of node:       254.8551 deg
Eccentricity:    0.0006269
Arg of perigee:   255.0661 deg
Mean anomaly:     104.9758 deg
Mean motion:   14.29668307 rev/day
Decay rate:       -8.5e-07 rev/day^2
Epoch rev:           51184
Checksum:              327

Satellite: SO-50
Catalog number: 27607
Epoch time:      11202.51561788
Element set:     520
Inclination:      064.5563 deg
RA of node:       223.3570 deg
Eccentricity:    0.0075697
Arg of perigee:   313.8996 deg
Mean anomaly:     045.5873 deg
Mean motion:   14.71774417 rev/day
Decay rate:       1.81e-06 rev/day^2
Epoch rev:           46114
Checksum:              316

Satellite: CO-55
Catalog number: 27844
Epoch time:      11201.55670536
Element set:     157
Inclination:      098.7059 deg
RA of node:       209.7722 deg
Eccentricity:    0.0010629
Arg of perigee:   099.9344 deg
Mean anomaly:     260.3057 deg
Mean motion:   14.20826148 rev/day
Decay rate:        9.9e-07 rev/day^2
Epoch rev:           41765
Checksum:              324

Satellite: CO-57
Catalog number: 27848
Epoch time:      11201.99833270
Element set:     108
Inclination:      098.7115 deg
RA of node:       209.4076 deg
Eccentricity:    0.0010745
Arg of perigee:   103.0370 deg
Mean anomaly:     257.2032 deg
Mean motion:   14.20604031 rev/day
Decay rate:        6.2e-07 rev/day^2
Epoch rev:           41766
Checksum:              271

Satellite: AO-51
Catalog number: 28375
Epoch time:      11201.86257070
Element set:      25
Inclination:      098.1005 deg
RA of node:       178.5406 deg
Eccentricity:    0.0084144
Arg of perigee:   328.8419 deg
Mean anomaly:     030.7794 deg
Mean motion:   14.40768259 rev/day
Decay rate:        4.8e-07 rev/day^2
Epoch rev:           37091
Checksum:              307

Satellite: CP3
Catalog number: 31129
Epoch time:      11202.73096943
Element set:     922
Inclination:      097.8971 deg
RA of node:       224.9462 deg
Eccentricity:    0.0103398
Arg of perigee:   074.1516 deg
Mean anomaly:     287.0972 deg
Mean motion:   14.52519599 rev/day
Decay rate:       2.14e-06 rev/day^2
Epoch rev:           22585
Checksum:              320

Satellite: CO-65
Catalog number: 32785
Epoch time:      11202.30883948
Element set:      48
Inclination:      097.8478 deg
RA of node:       265.5477 deg
Eccentricity:    0.0016063
Arg of perigee:   066.8022 deg
Mean anomaly:     293.4860 deg
Mean motion:   14.82053087 rev/day
Decay rate:       3.78e-06 rev/day^2
Epoch rev:           17459
Checksum:              340

Satellite: PRISM
Catalog number: 33493
Epoch time:      11202.86955367
Element set:     791
Inclination:      098.1284 deg
RA of node:       331.9941 deg
Eccentricity:    0.0018456
Arg of perigee:   290.8289 deg
Mean anomaly:     069.0968 deg
Mean motion:   14.81790537 rev/day
Decay rate:       8.04e-06 rev/day^2
Epoch rev:           13465
Checksum:              341

Satellite: SOHLA-1
Catalog number: 33496
Epoch time:      11202.50128889
Element set:     469
Inclination:      098.0837 deg
RA of node:       311.9916 deg
Eccentricity:    0.0007220
Arg of perigee:   022.5100 deg
Mean anomaly:     337.6414 deg
Mean motion:   14.69635874 rev/day
Decay rate:       1.99e-06 rev/day^2
Epoch rev:           13352
Checksum:              302

Satellite: TISAT-1
Catalog number: 36799
Epoch time:      11202.67070461
Element set:      64
Inclination:      098.0995 deg
RA of node:       271.2618 deg
Eccentricity:    0.0015691
Arg of perigee:   160.9481 deg
Mean anomaly:     199.2323 deg
Mean motion:   14.80624088 rev/day
Decay rate:       6.14e-06 rev/day^2
Epoch rev:            5541
Checksum:              306

Satellite: STUDSAT
Catalog number: 36801
Epoch time:      11201.79749037
Element set:     214
Inclination:      098.1056 deg
RA of node:       270.2673 deg
Eccentricity:    0.0013683
Arg of perigee:   152.3731 deg
Mean anomaly:     207.8209 deg
Mean motion:   14.80781048 rev/day
Decay rate:      1.686e-05 rev/day^2
Epoch rev:            5527
Checksum:              292

Satellite: RAX
Catalog number: 37223
Epoch time:      11152.36844328
Element set:    0173
Inclination:      071.9713 deg
RA of node:       073.6151 deg
Eccentricity:    0.0021634
Arg of perigee:   311.5989 deg
Mean anomaly:     048.3343 deg
Mean motion:   14.77415682 rev/day
Decay rate:       6.35e-06 rev/day^2
Epoch rev:           02854
Checksum:              291

Satellite: OOREOS
Catalog number: 37224
Epoch time:      11153.29456974
Element set:    0179
Inclination:      071.9726 deg
RA of node:       071.8135 deg
Eccentricity:    0.0020315
Arg of perigee:   307.7637 deg
Mean anomaly:     052.1684 deg
Mean motion:   14.77036357 rev/day
Decay rate:       4.92e-06 rev/day^2
Epoch rev:           02867
Checksum:              309

Satellite: FO-69
Catalog number: 37227
Epoch time:      11201.38908846
Element set:    0085
Inclination:      071.9707 deg
RA of node:       326.0545 deg
Eccentricity:    0.0018107
Arg of perigee:   223.3313 deg
Mean anomaly:     136.6437 deg
Mean motion:   14.76612984 rev/day
Decay rate:       1.72e-06 rev/day^2
Epoch rev:           01422
Checksum:              297

